Location: Decatur Area Astronomy Club
(40.0275°N, 88.7810°W)
Time: 16:04:23
(UTC-05:00)

Amateur Radio Satellites - All Passes

Search period start: 23 August 2016 15:34
Search period end: 24 August 2016 15:34
Location: Decatur Area Astronomy Club, 40.0275°N, 88.7810°W

Satellite Date Start Highest point End Downlink Frequencies (MHz)
Time Altitude Azimuth
Cosmos 2499 23 Aug 15:35:18 15:38:04 12° 299° (WNW) 15:40:47 435.465 / 435.565
SWISSCUBE 23 Aug 15:35:18 15:40:04 76° 285° (WNW) 15:44:49 437.505
KKS-1 23 Aug 15:43:32 15:45:20 12° 91° (E) 15:47:09 437.445
BEESAT 23 Aug 15:53:06 15:57:45 55° 287° (WNW) 16:02:24 436.000
AO-85 23 Aug 16:01:06 16:05:19 69° 242° (WSW) 16:09:14 145.980
HORYU 2 23 Aug 16:02:54 16:05:50 17° 65° (ENE) 16:08:44 437.375
AO-7 23 Aug 16:08:04 16:16:20 64° 256° (WSW) 16:24:39 29.400- 29.500
O/OREOS (USA 219) 23 Aug 16:12:55 16:16:26 22° 302° (WNW) 16:20:00 437.305
STARS 23 Aug 16:31:26 16:34:41 20° 94° (E) 16:37:55 437.465
ITUPSAT 1 23 Aug 16:38:10 16:41:44 21° 295° (WNW) 16:45:18 437.325
ISS 23 Aug 16:39:40 16:42:47 41° 31° (NNE) 16:45:53 145.825
MOZHAYETS 4 23 Aug 16:48:52 16:53:26 86° 100° (E) 16:58:01
YUBILEINY 23 Aug 16:59:56 17:07:11 28° 68° (ENE) 17:14:20 435.215
KKS-1 23 Aug 17:17:51 17:22:17 59° 286° (WNW) 17:26:39 437.445
Cubesat XI-IV 23 Aug 17:18:34 17:22:35 22° 64° (ENE) 17:26:35 437.490
LilacSat-2 23 Aug 17:18:47 17:20:48 14° 66° (ENE) 17:22:47 437.200
NOAA 18 23 Aug 17:31:20 17:35:57 28° 65° (ENE) 17:40:34 137.9125
CUTE-I 23 Aug 17:31:23 17:35:53 29° 67° (ENE) 17:40:24 437.470
HORYU 2 23 Aug 17:37:43 17:42:01 45° 260° (W) 17:46:19 437.375
BRITE-PL 23 Aug 17:41:09 17:45:44 63° 75° (ENE) 17:50:45 437.365/2234.400
GOMX 1 23 Aug 17:41:50 17:46:08 31° 68° (ENE) 17:50:42 467.674
NOAA 15 23 Aug 17:47:34 17:52:37 51° 71° (ENE) 17:57:43 137.62
CUBESAT XI-V 23 Aug 17:55:58 18:00:34 55° 100° (E) 18:05:11 437.345
STARS 23 Aug 18:07:06 18:11:07 35° 290° (WNW) 18:15:06 437.465
DOVE 4 23 Aug 18:12:19 18:16:40 29° 68° (ENE) 18:21:09 437.250
ISS 23 Aug 18:16:29 18:19:01 21° 228° (SW) 18:21:33 145.825
Cosmos 2504 23 Aug 18:17:17 18:23:11 26° 69° (ENE) 18:28:57 435.465 / 435.565
Cosmos 2491 23 Aug 18:33:43 18:42:06 55° 90° (E) 18:50:32 435.465 / 435.565
LilacSat-2 23 Aug 18:51:04 18:54:44 41° 261° (W) 18:58:24 437.200
YUBILEINY 23 Aug 18:55:57 19:04:35 64° 268° (W) 19:13:08 435.215
Cubesat XI-IV 23 Aug 18:57:08 19:02:17 48° 260° (W) 19:07:28 437.490
STRAND 1 23 Aug 19:01:49 19:04:29 14° 91° (E) 19:07:08 437.568
CUTE-I 23 Aug 19:10:54 19:15:47 36° 263° (W) 19:20:40 437.470
NOAA 18 23 Aug 19:11:13 19:16:24 40° 261° (W) 19:21:35 137.9125
BEESAT 3 23 Aug 19:16:46 19:20:12 27° 50° (NE) 19:23:37 437.485
HO-68 23 Aug 19:17:01 19:23:45 45° 66° (ENE) 19:30:30 435.675
GOMX 1 23 Aug 19:19:49 19:24:08 30° 266° (W) 19:28:44 467.674
BRITE-PL 23 Aug 19:22:40 19:24:48 13° 273° (W) 19:27:02 437.365/2234.400
CINEMA 3 23 Aug 19:26:42 19:31:27 45° 72° (ENE) 19:36:13 145.822/145.860
NOAA 15 23 Aug 19:29:00 19:32:40 19° 267° (W) 19:36:21 137.62
CUBESAT XI-V 23 Aug 19:34:43 19:37:29 16° 296° (WNW) 19:40:15 437.345
SEEDS 23 Aug 19:43:01 19:46:42 31° 71° (ENE) 19:50:24 437.485
DOVE 4 23 Aug 19:49:39 19:54:12 34° 265° (W) 19:58:57 437.250
CANX-2 23 Aug 19:54:25 19:58:36 73° 76° (ENE) 20:02:48 2200.000
CUTE 1.7 + AOD 2 23 Aug 20:01:28 20:05:39 76° 76° (ENE) 20:09:52 437.475
Cosmos 2504 23 Aug 20:09:55 20:16:58 54° 269° (W) 20:23:50 435.465 / 435.565
CUBEBUG 2 23 Aug 20:16:09 20:20:36 41° 72° (ENE) 20:24:58 437.445
UWE-3 23 Aug 20:23:56 20:28:05 33° 71° (ENE) 20:32:09 435.000/436.395/437.385
BEESAT 2 23 Aug 20:26:21 20:30:21 77° 57° (ENE) 20:34:21 435.950
AAUSAT CUBESAT 2 23 Aug 20:27:10 20:31:10 54° 74° (ENE) 20:35:11 437.432
Oscar 11 23 Aug 20:29:47 20:33:13 24° 68° (ENE) 20:36:40 145.826/435.025
COMPASS 1 23 Aug 20:30:27 20:34:34 78° 77° (ENE) 20:38:43 437.405
FUNcube-1 23 Aug 20:30:48 20:34:21 24° 68° (ENE) 20:37:52 145.935
Cosmos 2491 23 Aug 20:31:44 20:39:17 32° 290° (WNW) 20:46:55 435.465 / 435.565
STRAND 1 23 Aug 20:39:02 20:44:05 64° 287° (WNW) 20:49:07 437.568
ZACube-1 23 Aug 20:48:55 20:53:06 39° 72° (ENE) 20:57:14 437.345
BEESAT 3 23 Aug 20:54:28 20:57:47 25° 247° (WSW) 21:01:03 437.485
CINEMA 3 23 Aug 21:05:04 21:08:44 20° 268° (W) 21:12:26 145.822/145.860
HO-68 23 Aug 21:05:07 21:11:32 35° 263° (W) 21:17:59 435.675
AIST 1 23 Aug 21:10:09 21:14:34 72° 81° (E) 21:18:57
DELFI C3 23 Aug 21:10:30 21:13:45 25° 70° (ENE) 21:17:01 145.870
PRISM 23 Aug 21:17:05 21:20:59 37° 99° (E) 21:24:52 437.425
SEEDS 23 Aug 21:19:22 21:22:26 20° 266° (W) 21:25:31 437.485
AUBIESAT-1 23 Aug 21:33:28 21:35:47 14° 57° (ENE) 21:38:07 437.475
M-CUBED/EXP-1 PRIME 23 Aug 21:34:18 21:37:19 17° 59° (ENE) 21:40:21 437.505
PCSat 23 Aug 21:42:18 21:47:26 40° 55° (NE) 21:52:31 145.827
CUBEBUG 2 23 Aug 21:53:57 21:57:20 19° 267° (W) 22:00:42 437.445
AIST 2 23 Aug 21:59:18 22:03:06 32° 51° (NE) 22:06:52 435.215
UWE-3 23 Aug 22:00:53 22:04:33 23° 266° (W) 22:08:11 435.000/436.395/437.385
Oscar 11 23 Aug 22:05:28 22:09:13 29° 264° (W) 22:12:58 145.826/435.025
AAUSAT CUBESAT 2 23 Aug 22:05:44 22:06:58 11° 270° (W) 22:08:12 437.432
FUNcube-1 23 Aug 22:06:26 22:10:25 31° 263° (W) 22:14:23 145.935
HUMSAT D 23 Aug 22:14:58 22:19:08 72° 76° (ENE) 22:23:17 437.325/437.525
UNISAT 6 23 Aug 22:20:16 22:23:18 18° 93° (E) 22:26:18 437.425
ZACube-1 23 Aug 22:26:19 22:29:30 19° 267° (W) 22:32:39 437.345
DELFI C3 23 Aug 22:45:28 22:48:32 22° 265° (W) 22:51:38 145.870
PRISM 23 Aug 22:53:10 22:56:00 18° 294° (WNW) 22:58:50 437.425
ANTELSAT 23 Aug 22:56:33 23:00:44 47° 99° (E) 23:04:50 437.575/2403.000
VELOX 1 23 Aug 22:58:43 23:01:57 20° 66° (ENE) 23:05:11 145.980
AUBIESAT-1 23 Aug 23:05:03 23:09:36 72° 253° (WSW) 23:14:17 437.475
M-CUBED/EXP-1 PRIME 23 Aug 23:06:48 23:11:19 57° 255° (WSW) 23:15:59 437.505
GONETS M04 23 Aug 23:09:57 23:18:18 43° 74° (ENE) 23:26:35
CUBEBUG 1 23 Aug 23:11:49 23:15:42 32° 70° (ENE) 23:19:38 437.445
50 SAT 23 Aug 23:16:29 23:19:27 25° 71° (ENE) 23:22:27 437.505
ESTCUBE 1 23 Aug 23:19:00 23:23:25 60° 73° (ENE) 23:27:50 437.505/2401.250
PCSat 23 Aug 23:26:04 23:30:37 28° 252° (WSW) 23:35:08 145.827
Cosmos 2499 23 Aug 23:27:36 23:34:08 38° 74° (ENE) 23:40:36 435.465 / 435.565
TIGRISAT 23 Aug 23:28:45 23:33:04 78° 286° (WNW) 23:37:18 435.000
DX 1 23 Aug 23:30:35 23:34:22 30° 69° (ENE) 23:38:10 434.975-435.025
AIST 2 23 Aug 23:38:04 23:41:25 24° 248° (WSW) 23:44:46 435.215
AISAT 23 Aug 23:45:47 23:50:11 68° 74° (ENE) 23:54:38 437.250
QB50P1 23 Aug 23:48:15 23:51:43 24° 95° (E) 23:55:10 145.935-145.965
SPROUT 23 Aug 23:50:15 23:54:09 34° 70° (ENE) 23:58:03 437.525
UNISAT 6 23 Aug 23:56:11 00:00:09 35° 289° (WNW) 00:04:01 437.425
POPSAT HIP 1 23 Aug 23:57:36 00:01:22 30° 97° (E) 00:05:05 437.405
BUGSAT 1 24 Aug 00:09:56 00:12:25 15° 92° (E) 00:14:54 437.445
UKube-1 24 Aug 00:18:57 00:23:16 80° 77° (ENE) 00:27:37 .
CUSAT 1 24 Aug 00:21:37 00:24:16 89° 272° (W) 00:27:24 437.405
JAS-2 24 Aug 00:23:25 00:29:31 36° 97° (E) 00:36:11 435.910
TISAT 1 24 Aug 00:26:27 00:29:29 19° 66° (ENE) 00:32:31 437.305
QB50P2 24 Aug 00:26:30 00:30:45 74° 102° (ESE) 00:34:56 145.880/145.840
POLYITAN 1 24 Aug 00:29:03 00:33:17 75° 101° (E) 00:37:28 437.675
DUCHIFAT 1 24 Aug 00:30:20 00:34:32 67° 101° (ESE) 00:38:41 145.980
VELOX 1 24 Aug 00:34:02 00:38:08 37° 262° (W) 00:42:18 145.980
ANTELSAT 24 Aug 00:34:33 00:37:02 15° 296° (WNW) 00:39:29 437.575/2403.000
SO-50 24 Aug 00:35:41 00:40:23 49° 117° (ESE) 00:45:03 436.795
DANDE 24 Aug 00:37:24 00:39:37 24° 95° (E) 00:41:49 436.750
NANOSAT C BR1 24 Aug 00:41:55 00:46:09 83° 282° (WNW) 00:50:20 145.865
O/OREOS (USA 219) 24 Aug 00:42:59 00:47:33 62° 66° (ENE) 00:52:06 437.305
RS-15 24 Aug 00:46:16 00:55:07 27° 101° (E) 01:04:15 29.354- 29.394
CUBEBUG 1 24 Aug 00:48:36 00:52:00 22° 266° (W) 00:55:27 437.445
50 SAT 24 Aug 00:50:31 00:53:02 18° 265° (W) 00:55:34 437.505
Oscar 19 24 Aug 00:58:22 00:59:01 10° 89° (E) 00:59:39 437.125/150
ESTCUBE 1 24 Aug 00:58:50 01:00:35 12° 270° (W) 01:02:21 437.505/2401.250
SWISSCUBE 24 Aug 01:06:22 01:08:27 13° 61° (ENE) 01:10:33 437.505
GONETS M04 24 Aug 01:06:57 01:15:01 41° 273° (W) 01:23:02
DX 1 24 Aug 01:07:01 01:10:32 24° 265° (W) 01:14:05 434.975-435.025
Cosmos 2499 24 Aug 01:20:51 01:27:06 35° 273° (W) 01:33:22 435.465 / 435.565
BEESAT 24 Aug 01:22:55 01:25:58 17° 64° (ENE) 01:29:00 436.000
QB50P1 24 Aug 01:23:53 01:27:27 26° 291° (WNW) 01:30:57 145.935-145.965
AISAT 24 Aug 01:26:09 01:27:06 11° 270° (W) 01:28:02 437.250
SPROUT 24 Aug 01:26:58 01:30:09 20° 266° (W) 01:33:21 437.525
Gurwin Techsat 1B 24 Aug 01:33:41 01:34:26 10° 88° (E) 01:35:11 435.225
POPSAT HIP 1 24 Aug 01:33:44 01:36:58 22° 293° (WNW) 01:40:10 437.405
BUGSAT 1 24 Aug 01:44:04 01:47:59 40° 288° (WNW) 01:51:49 437.445
TISAT 1 24 Aug 02:00:57 02:04:52 36° 262° (W) 02:08:48 437.305
ITUPSAT 1 24 Aug 02:05:41 02:10:10 44° 71° (ENE) 02:14:42 437.325
JAS-2 24 Aug 02:08:24 02:14:31 42° 291° (WNW) 02:21:18 435.910
DUCHIFAT 1 24 Aug 02:08:33 02:09:38 11° 298° (WNW) 02:10:43 145.980
SO-50 24 Aug 02:17:13 02:21:06 23° 315° (NW) 02:24:57 436.795
O/OREOS (USA 219) 24 Aug 02:24:34 02:26:22 12° 262° (W) 02:28:10 437.305
Oscar 19 24 Aug 02:33:44 02:38:58 87° 287° (WNW) 02:44:10 437.125/150
SWISSCUBE 24 Aug 02:40:54 02:45:38 71° 258° (WSW) 02:50:24 437.505
KKS-1 24 Aug 02:41:44 02:43:18 12° 62° (ENE) 02:44:54 437.445
RS-15 24 Aug 02:54:34 03:06:07 81° 303° (WNW) 03:18:21 29.354- 29.394
BEESAT 24 Aug 02:58:41 03:03:19 52° 260° (W) 03:07:58 436.000
Gurwin Techsat 1B 24 Aug 03:09:42 03:15:03 88° 284° (WNW) 03:20:22 435.225
STARS 24 Aug 03:27:50 03:30:48 18° 65° (ENE) 03:33:46 437.465
ITAMSAT 1 24 Aug 03:38:33 03:43:36 52° 101° (E) 03:48:38 435.822/435.867
ITUPSAT 1 24 Aug 03:44:52 03:48:12 19° 267° (W) 03:51:32 437.325
MOZHAYETS 4 24 Aug 03:49:45 03:54:18 75° 76° (ENE) 03:58:53
AO-7 24 Aug 04:10:27 04:18:23 46° 101° (E) 04:26:14 29.400- 29.500
PHONESAT 2.4 24 Aug 04:11:37 04:14:28 42° 160° (SSE) 04:17:21 2401.200-2431.200
KKS-1 24 Aug 04:14:48 04:19:15 71° 258° (WSW) 04:23:46 437.445
Oscar 19 24 Aug 04:15:55 04:17:28 11° 301° (WNW) 04:19:00 437.125/150
Cosmos 2491 24 Aug 04:45:16 04:52:23 26° 67° (ENE) 04:59:27 435.465 / 435.565
Gurwin Techsat 1B 24 Aug 04:52:20 04:54:11 12° 301° (WNW) 04:56:01 435.225
CUBESAT XI-V 24 Aug 04:58:28 05:02:53 48° 72° (ENE) 05:07:20 437.345
STARS 24 Aug 05:02:35 05:06:48 43° 261° (W) 05:11:03 437.465
RS-15 24 Aug 05:10:48 05:20:49 30° 330° (NNW) 05:31:13 29.354- 29.394
ITAMSAT 1 24 Aug 05:19:01 05:22:40 20° 297° (WNW) 05:26:17 435.822/435.867
HORYU 2 24 Aug 05:29:15 05:33:16 33° 98° (E) 05:37:16 437.375
BRITE-PL 24 Aug 05:46:34 05:51:18 26° 93° (E) 05:55:58 437.365/2234.400
GOMX 1 24 Aug 05:47:04 05:48:07 11° 86° (E) 05:49:11 467.674
PHONESAT 2.4 24 Aug 05:47:47 05:50:47 81° 359° (N) 05:53:46 2401.200-2431.200
CUTE-I 24 Aug 05:51:27 05:52:36 11° 89° (E) 05:53:45 437.470
NOAA 18 24 Aug 05:56:25 05:57:37 11° 89° (E) 05:58:49 137.9125
YUBILEINY 24 Aug 06:00:23 06:07:51 32° 84° (E) 06:15:19 435.215
AO-7 24 Aug 06:03:26 06:10:59 40° 299° (WNW) 06:18:29 29.400- 29.500
NOAA 15 24 Aug 06:04:07 06:07:58 20° 93° (E) 06:11:49 137.62
AO-85 24 Aug 06:13:24 06:18:32 48° 116° (ESE) 06:23:24 145.980
STRAND 1 24 Aug 06:16:47 06:20:29 21° 64° (ENE) 06:24:12 437.568
LilacSat-2 24 Aug 06:25:32 06:28:23 20° 94° (E) 06:31:12 437.200
CUBESAT XI-V 24 Aug 06:37:46 06:40:31 16° 269° (W) 06:43:18 437.345
Cosmos 2491 24 Aug 06:41:11 06:49:55 68° 268° (W) 06:58:38 435.465 / 435.565
Cosmos 2504 24 Aug 06:54:56 07:01:24 25° 83° (E) 07:07:34 435.465 / 435.565
HORYU 2 24 Aug 07:06:15 07:09:37 22° 294° (WNW) 07:12:59 437.375
Cubesat XI-IV 24 Aug 07:14:44 07:20:04 72° 103° (ESE) 07:25:22 437.490
GOMX 1 24 Aug 07:21:25 07:26:56 89° 99° (E) 07:32:12 467.674
PHONESAT 2.4 24 Aug 07:24:10 07:27:10 74° 193° (SSW) 07:30:09 2401.200-2431.200
BRITE-PL 24 Aug 07:24:29 07:29:50 43° 289° (WNW) 07:35:09 437.365/2234.400
CINEMA 3 24 Aug 07:25:55 07:26:13 10° 88° (E) 07:26:29 145.822/145.860
CUTE-I 24 Aug 07:27:57 07:33:18 86° 283° (WNW) 07:38:36 437.470
RS-15 24 Aug 07:30:23 07:39:02 21° 6° (N) 07:47:47 29.354- 29.394
NOAA 18 24 Aug 07:33:27 07:38:58 89° 290° (WNW) 07:44:26 137.9125
CANX-2 24 Aug 07:41:44 07:43:44 13° 91° (E) 07:45:44 2200.000
NOAA 15 24 Aug 07:42:52 07:47:59 49° 289° (WNW) 07:53:05 137.62
CUTE 1.7 + AOD 2 24 Aug 07:48:33 07:50:41 14° 91° (E) 07:52:48 437.475
DOVE 4 24 Aug 07:48:53 07:54:04 78° 102° (ESE) 07:58:56 437.250
STRAND 1 24 Aug 07:54:23 07:59:18 48° 260° (W) 08:04:15 437.568
AO-85 24 Aug 07:54:49 07:59:12 26° 312° (NW) 08:03:23 145.980
YUBILEINY 24 Aug 07:55:35 08:04:10 54° 283° (WNW) 08:12:49 435.215
LilacSat-2 24 Aug 07:59:31 08:02:39 25° 290° (WNW) 08:05:46 437.200
PRISM 24 Aug 08:06:10 08:09:30 25° 68° (ENE) 08:12:51 437.425
COMPASS 1 24 Aug 08:15:34 08:17:30 13° 91° (E) 08:19:26 437.405
HO-68 24 Aug 08:32:31 08:39:27 49° 100° (E) 08:46:19 435.675
Cosmos 2491 24 Aug 08:42:48 08:44:57 11° 287° (WNW) 08:47:06 435.465 / 435.565
Cosmos 2504 24 Aug 08:45:36 08:54:09 67° 280° (W) 09:02:09 435.465 / 435.565
Cubesat XI-IV 24 Aug 08:56:31 08:59:31 15° 299° (WNW) 09:02:29 437.490
CINEMA 3 24 Aug 08:59:19 09:03:56 70° 284° (WNW) 09:08:17 145.822/145.860
PHONESAT 2.4 24 Aug 09:00:58 09:03:15 20° 208° (SSW) 09:05:33 2401.200-2431.200
GOMX 1 24 Aug 09:01:49 09:04:08 13° 300° (WNW) 09:06:24 467.674
SEEDS 24 Aug 09:02:22 09:06:34 68° 101° (ESE) 09:10:45 437.485
SO-50 24 Aug 09:07:56 09:12:13 36° 50° (NE) 09:16:23 436.795
CUTE-I 24 Aug 09:10:50 09:12:30 11° 302° (WNW) 09:14:10 437.470
CANX-2 24 Aug 09:15:45 09:19:51 49° 286° (WNW) 09:23:57 2200.000
NOAA 18 24 Aug 09:16:34 09:18:47 13° 303° (WNW) 09:21:01 137.9125
UNISAT 6 24 Aug 09:18:37 09:21:41 18° 66° (ENE) 09:24:44 437.425
ISS 24 Aug 09:19:28 09:21:35 16° 131° (SE) 09:23:43 145.825
CUTE 1.7 + AOD 2 24 Aug 09:22:42 09:26:46 48° 287° (WNW) 09:30:50 437.475
DOVE 4 24 Aug 09:28:37 09:30:58 13° 300° (WNW) 09:33:16 437.250
AIST 1 24 Aug 09:38:38 09:42:42 42° 92° (E) 09:46:50
PRISM 24 Aug 09:41:20 09:44:43 25° 264° (W) 09:48:07 437.425
CUBEBUG 2 24 Aug 09:44:07 09:48:25 81° 282° (WNW) 09:52:35 437.445
RS-15 24 Aug 09:45:02 09:56:27 40° 39° (NE) 10:07:42 29.354- 29.394
AAUSAT CUBESAT 2 24 Aug 09:45:09 09:49:17 71° 285° (WNW) 09:53:26 437.432
COMPASS 1 24 Aug 09:49:18 09:53:19 49° 287° (WNW) 09:57:20 437.405
UWE-3 24 Aug 09:50:11 09:54:25 77° 101° (E) 09:58:34 435.000/436.395/437.385
Oscar 11 24 Aug 09:52:33 09:56:45 51° 99° (E) 10:00:57 145.826/435.025
ANTELSAT 24 Aug 09:54:17 09:58:36 40° 72° (ENE) 10:02:53 437.575/2403.000
FUNcube-1 24 Aug 09:54:39 09:58:42 49° 99° (E) 10:02:41 145.935
HUMSAT D 24 Aug 10:01:13 10:02:31 11° 91° (E) 10:03:49 437.325/437.525
ZACube-1 24 Aug 10:13:48 10:17:59 90° 254° (WSW) 10:22:07 437.345
BEESAT 2 24 Aug 10:19:07 10:21:24 15° 110° (ESE) 10:23:42 435.950
HO-68 24 Aug 10:20:42 10:26:53 32° 298° (WNW) 10:33:02 435.675
DELFI C3 24 Aug 10:22:31 10:26:22 45° 99° (E) 10:30:12 145.870
TIGRISAT 24 Aug 10:26:01 10:30:40 84° 76° (ENE) 10:35:15 435.000
QB50P1 24 Aug 10:40:33 10:43:28 18° 66° (ENE) 10:46:24 145.935-145.965
SEEDS 24 Aug 10:40:49 10:41:41 11° 297° (WNW) 10:42:34 437.485
JAS-2 24 Aug 10:40:54 10:41:38 10° 56° (NE) 10:42:22 435.910
BEESAT 3 24 Aug 10:43:28 10:47:18 58° 118° (ESE) 10:51:11 437.485
Cosmos 2504 24 Aug 10:46:11 10:49:01 12° 300° (WNW) 10:51:49 435.465 / 435.565
SO-50 24 Aug 10:48:49 10:52:29 24° 248° (WSW) 10:56:05 436.795
POPSAT HIP 1 24 Aug 10:49:43 10:53:02 22° 68° (ENE) 10:56:22 437.405
CUSAT 1 24 Aug 10:51:14 10:57:15 63° 79° (E) 11:04:38 437.405
UNISAT 6 24 Aug 10:53:35 10:58:03 46° 261° (W) 11:02:28 437.425
ISS 24 Aug 10:54:32 10:57:43 51° 327° (NNW) 11:00:55 145.825
BUGSAT 1 24 Aug 11:00:24 11:01:44 11° 63° (ENE) 11:03:04 437.445
DANDE 24 Aug 11:11:17 11:15:52 34° 78° (ENE) 11:21:42 436.750
ESTCUBE 1 24 Aug 11:13:46 11:15:59 13° 91° (E) 11:18:11 437.505/2401.250
AIST 1 24 Aug 11:17:55 11:20:31 16° 289° (WNW) 11:23:09
QB50P2 24 Aug 11:18:08 11:22:16 49° 73° (ENE) 11:26:25 145.880/145.840
POLYITAN 1 24 Aug 11:20:39 11:24:48 50° 73° (ENE) 11:28:58 437.675
DUCHIFAT 1 24 Aug 11:21:17 11:25:18 44° 73° (ENE) 11:29:22 145.980
Oscar 11 24 Aug 11:30:08 11:32:27 14° 295° (WNW) 11:34:45 145.826/435.025
ANTELSAT 24 Aug 11:32:07 11:35:26 19° 266° (W) 11:38:44 437.575/2403.000
FUNcube-1 24 Aug 11:32:25 11:34:30 14° 296° (WNW) 11:36:35 145.935
NANOSAT C BR1 24 Aug 11:32:55 11:37:08 65° 75° (ENE) 11:41:23 145.865
HUMSAT D 24 Aug 11:34:29 11:38:27 52° 286° (WNW) 11:42:25 437.325/437.525
AISAT 24 Aug 11:38:18 11:40:30 13° 91° (E) 11:42:42 437.250
BEESAT 2 24 Aug 11:55:03 11:58:50 44° 306° (NW) 12:02:40 435.950
RS-15 24 Aug 11:57:43 12:10:01 73° 244° (WSW) 12:22:02 29.354- 29.394
DELFI C3 24 Aug 11:58:45 12:00:49 14° 294° (WNW) 12:02:52 145.870
Cosmos 2499 24 Aug 12:03:01 12:10:14 34° 87° (E) 12:17:00 435.465 / 435.565
UKube-1 24 Aug 12:08:18 12:10:32 14° 92° (E) 12:12:44 .
GONETS M04 24 Aug 12:09:58 12:18:15 50° 89° (E) 12:26:37
Oscar 19 24 Aug 12:13:11 12:16:15 16° 62° (ENE) 12:19:20 437.125/150
QB50P1 24 Aug 12:14:57 12:18:57 38° 262° (W) 12:22:58 145.935-145.965
50 SAT 24 Aug 12:18:14 12:21:34 33° 98° (E) 12:24:52 437.505
AUBIESAT-1 24 Aug 12:19:26 12:23:37 84° 288° (WNW) 12:27:28 437.475
JAS-2 24 Aug 12:20:36 12:25:45 86° 75° (ENE) 12:31:10 435.910
M-CUBED/EXP-1 PRIME 24 Aug 12:21:43 12:25:57 64° 291° (WNW) 12:29:49 437.505
BEESAT 3 24 Aug 12:23:03 12:25:19 15° 316° (NW) 12:27:37 437.485
PCSat 24 Aug 12:23:16 12:28:18 41° 111° (ESE) 12:33:22 145.827
VELOX 1 24 Aug 12:24:26 12:28:40 41° 99° (E) 12:32:51 145.980
POPSAT HIP 1 24 Aug 12:24:51 12:28:39 31° 263° (W) 12:32:27 437.405
BUGSAT 1 24 Aug 12:32:18 12:36:31 67° 259° (WSW) 12:40:47 437.445
ISS 24 Aug 12:32:52 12:34:44 14° 345° (NNW) 12:36:36 145.825
CUSAT 1 24 Aug 12:34:17 12:39:01 23° 270° (W) 12:44:25 437.405
CUBEBUG 1 24 Aug 12:36:32 12:40:58 71° 102° (ESE) 12:45:22 437.445
ESTCUBE 1 24 Aug 12:48:40 12:53:07 56° 287° (WNW) 12:57:33 437.505/2401.250
Gurwin Techsat 1B 24 Aug 12:52:33 12:56:02 18° 62° (ENE) 12:59:30 435.225
DANDE 24 Aug 12:54:01 12:58:33 31° 265° (W) 13:04:13 436.750
DX 1 24 Aug 12:54:43 12:59:04 60° 101° (ESE) 13:03:23 434.975-435.025
QB50P2 24 Aug 12:56:10 12:58:19 14° 268° (W) 13:00:30 145.880/145.840
DUCHIFAT 1 24 Aug 12:58:43 13:01:12 15° 268° (W) 13:03:42 145.980
POLYITAN 1 24 Aug 12:58:45 13:00:53 13° 269° (W) 13:03:00 437.675
SPROUT 24 Aug 13:12:05 13:16:23 73° 102° (ESE) 13:20:38 437.525
NANOSAT C BR1 24 Aug 13:12:50 13:13:16 10° 270° (W) 13:13:42 145.865
AISAT 24 Aug 13:12:55 13:17:17 54° 287° (WNW) 13:21:37 437.250
AO-7 24 Aug 13:21:52 13:25:28 14° 46° (NE) 13:29:03 29.400- 29.500
AIST 2 24 Aug 13:33:52 13:37:57 82° 118° (ESE) 13:42:06 435.215
UKube-1 24 Aug 13:42:38 13:46:50 50° 288° (WNW) 13:51:01 .
TISAT 1 24 Aug 13:45:18 13:49:09 34° 98° (E) 13:52:58 437.305
Oscar 19 24 Aug 13:49:54 13:55:01 65° 259° (W) 14:00:11 437.125/150
50 SAT 24 Aug 13:52:45 13:54:51 15° 293° (WNW) 13:56:57 437.505
Cosmos 2499 24 Aug 13:55:11 14:03:05 47° 283° (WNW) 14:10:30 435.465 / 435.565
VELOX 1 24 Aug 14:01:42 14:04:48 19° 295° (WNW) 14:07:53 145.980
PCSat 24 Aug 14:07:06 14:11:48 29° 309° (NW) 14:16:31 145.827
GONETS M04 24 Aug 14:07:30 14:15:17 35° 289° (WNW) 14:23:11
ITUPSAT 1 24 Aug 14:09:03 14:10:34 11° 90° (E) 14:12:07 437.325
ISS 24 Aug 14:11:07 14:12:15 11° 6° (N) 14:13:24 145.825
RS-15 24 Aug 14:13:45 14:20:11 16° 265° (W) 14:26:36 29.354- 29.394
CUBEBUG 1 24 Aug 14:15:13 14:16:38 11° 298° (WNW) 14:18:03 437.445
Gurwin Techsat 1B 24 Aug 14:30:14 14:35:28 60° 259° (W) 14:40:45 435.225
DX 1 24 Aug 14:32:42 14:34:44 13° 297° (WNW) 14:36:45 434.975-435.025
SWISSCUBE 24 Aug 14:41:59 14:46:10 30° 97° (E) 14:50:19 437.505
AO-85 24 Aug 14:46:32 14:50:21 30° 49° (NE) 14:53:54 145.980
SPROUT 24 Aug 14:50:56 14:51:42 10° 298° (WNW) 14:52:27 437.525
O/OREOS (USA 219) 24 Aug 14:54:24 14:58:52 84° 114° (ESE) 15:03:25 437.305
ITAMSAT 1 24 Aug 14:55:46 15:00:56 75° 74° (ENE) 15:06:07 435.822/435.867
BEESAT 24 Aug 14:59:20 15:03:50 40° 99° (E) 15:08:18 436.000
AO-7 24 Aug 15:08:22 15:16:31 60° 66° (ENE) 15:24:41 29.400- 29.500
AIST 2 24 Aug 15:15:11 15:17:00 12° 319° (NW) 15:18:49 435.215
TISAT 1 24 Aug 15:21:30 15:24:33 20° 293° (WNW) 15:27:34 437.305
